Time,TemperatureF,DewpointF,PressureIn,WindDirection,WindDirectionDegrees,WindSpeedMPH,WindSpeedGustMPH,Humidity,HourlyPrecipIn,Conditions,Clouds,dailyrainin,SoftwareType,DateUTC
2013-05-11 00:02:00,46.0,42.0,29.91,North,355,8.0,11.0,87,0.00,,,0.00,,2013-05-11 05:02:00,
2013-05-11 00:12:00,46.0,42.0,29.91,North,355,8.0,11.0,87,0.00,,,0.00,,2013-05-11 05:12:00,
2013-05-11 00:21:00,46.0,42.0,29.91,North,9,4.0,13.0,87,0.00,,,0.00,,2013-05-11 05:21:00,
2013-05-11 00:32:00,46.0,42.0,29.92,North,5,4.0,10.0,86,0.00,,,0.00,,2013-05-11 05:32:00,
2013-05-11 00:42:00,46.0,42.0,29.92,North,10,4.0,6.0,87,0.00,,,0.00,,2013-05-11 05:42:00,
2013-05-11 00:52:00,46.0,42.0,29.92,North,10,4.0,6.0,87,0.00,,,0.00,,2013-05-11 05:52:00,
2013-05-11 01:02:00,46.0,42.0,29.93,North,9,1.0,7.0,87,0.00,,,0.00,,2013-05-11 06:02:00,
2013-05-11 01:12:00,46.0,42.0,29.93,North,9,1.0,7.0,87,0.00,,,0.00,,2013-05-11 06:12:00,
2013-05-11 01:21:00,46.0,42.0,29.93,North,10,3.0,6.0,86,0.00,,,0.00,,2013-05-11 06:21:00,
2013-05-11 01:32:00,46.0,42.0,29.93,North,355,4.0,8.0,87,0.00,,,0.00,,2013-05-11 06:32:00,
2013-05-11 01:42:00,46.0,43.0,29.93,North,355,4.0,6.0,88,0.00,,,0.00,,2013-05-11 06:42:00,
2013-05-11 01:52:00,46.0,43.0,29.93,North,355,4.0,6.0,88,0.00,,,0.00,,2013-05-11 06:52:00,
2013-05-11 02:02:00,46.0,43.0,29.93,North,351,4.0,7.0,89,0.00,,,0.00,,2013-05-11 07:02:00,
2013-05-11 02:11:00,46.0,43.0,29.93,North,351,4.0,7.0,89,0.00,,,0.00,,2013-05-11 07:11:00,
2013-05-11 02:21:00,46.0,43.0,29.93,NNW,347,4.0,7.0,89,0.00,,,0.00,,2013-05-11 07:21:00,
2013-05-11 02:32:00,46.0,43.0,29.93,NNW,338,5.0,8.0,89,0.00,,,0.00,,2013-05-11 07:32:00,
2013-05-11 02:42:00,46.0,43.0,29.93,NNW,338,5.0,8.0,89,0.00,,,0.00,,2013-05-11 07:42:00,
2013-05-11 02:52:00,46.0,43.0,29.93,NNW,342,3.0,6.0,89,0.00,,,0.00,,2013-05-11 07:52:00,
2013-05-11 03:01:00,46.0,43.0,29.93,NNW,342,0.0,4.0,89,0.00,,,0.00,,2013-05-11 08:01:00,
2013-05-11 03:12:00,46.0,43.0,29.93,NNW,342,0.0,4.0,89,0.00,,,0.00,,2013-05-11 08:12:00,
2013-05-11 03:21:00,46.0,43.0,29.93,NNW,342,2.0,4.0,90,0.00,,,0.00,,2013-05-11 08:21:00,
2013-05-11 03:32:00,45.0,42.0,29.93,NNW,342,0.0,3.0,90,0.00,,,0.00,,2013-05-11 08:32:00,
2013-05-11 03:42:00,46.0,44.0,29.93,NNW,342,2.0,4.0,91,0.00,,,0.00,,2013-05-11 08:42:00,
2013-05-11 03:52:00,46.0,44.0,29.93,NNW,342,2.0,4.0,91,0.00,,,0.00,,2013-05-11 08:52:00,
2013-05-11 04:01:00,46.0,44.0,29.93,NNW,342,2.0,4.0,91,0.00,,,0.00,,2013-05-11 09:01:00,
2013-05-11 04:11:00,46.0,44.0,29.93,NNW,342,2.0,4.0,91,0.00,,,0.00,,2013-05-11 09:11:00,
2013-05-11 04:21:00,46.0,44.0,29.93,NNW,342,2.0,3.0,91,0.00,,,0.00,,2013-05-11 09:21:00,
2013-05-11 04:32:00,46.0,44.0,29.93,NNW,342,2.0,4.0,92,0.00,,,0.00,,2013-05-11 09:32:00,
2013-05-11 04:42:00,46.0,44.0,29.93,NNW,342,0.0,1.0,92,0.00,,,0.00,,2013-05-11 09:42:00,
2013-05-11 04:52:00,46.0,44.0,29.93,NNW,342,0.0,1.0,92,0.00,,,0.00,,2013-05-11 09:52:00,
2013-05-11 05:03:00,46.0,44.0,29.92,NNW,342,0.0,0.0,92,0.00,,,0.00,,2013-05-11 10:03:00,
2013-05-11 05:12:00,46.0,44.0,29.92,NNW,342,0.0,0.0,92,0.00,,,0.00,,2013-05-11 10:12:00,
2013-05-11 05:22:00,46.0,44.0,29.92,NNW,342,0.0,0.0,92,0.00,,,0.00,,2013-05-11 10:22:00,
2013-05-11 05:33:00,46.0,44.0,29.92,NNW,342,0.0,1.0,92,0.00,,,0.00,,2013-05-11 10:33:00,
2013-05-11 05:42:00,46.0,44.0,29.91,NNW,342,0.0,1.0,92,0.00,,,0.00,,2013-05-11 10:42:00,
2013-05-11 05:52:00,46.0,44.0,29.91,NNW,342,0.0,1.0,92,0.00,,,0.00,,2013-05-11 10:52:00,
2013-05-11 06:02:00,46.0,44.0,29.91,NNW,342,0.0,0.0,92,0.00,,,0.00,,2013-05-11 11:02:00,
2013-05-11 06:12:00,46.0,44.0,29.91,NNW,342,0.0,0.0,92,0.00,,,0.00,,2013-05-11 11:12:00,
2013-05-11 06:21:00,46.0,44.0,29.90,NNW,342,0.0,0.0,92,0.00,,,0.00,,2013-05-11 11:21:00,
2013-05-11 06:32:00,47.0,45.0,29.90,NNW,342,2.0,4.0,92,0.00,,,0.00,,2013-05-11 11:32:00,
2013-05-11 06:42:00,47.0,45.0,29.90,NNW,342,2.0,4.0,92,0.00,,,0.00,,2013-05-11 11:42:00,
2013-05-11 06:51:00,47.0,45.0,29.90,NNW,342,2.0,4.0,92,0.00,,,0.00,,2013-05-11 11:51:00,
2013-05-11 07:01:00,47.0,45.0,29.91,WNW,286,4.0,6.0,93,0.00,,,0.00,,2013-05-11 12:01:00,
2013-05-11 07:11:00,47.0,45.0,29.91,WNW,286,4.0,6.0,93,0.00,,,0.00,,2013-05-11 12:11:00,
2013-05-11 07:21:00,48.0,46.0,29.91,West,276,4.0,7.0,92,0.00,,,0.00,,2013-05-11 12:21:00,
2013-05-11 07:32:00,48.0,46.0,29.91,West,277,4.0,7.0,92,0.00,,,0.00,,2013-05-11 12:32:00,
2013-05-11 07:42:00,48.0,45.0,29.90,WNW,292,5.0,11.0,91,0.00,,,0.00,,2013-05-11 12:42:00,
2013-05-11 07:51:00,48.0,45.0,29.90,WNW,292,5.0,11.0,91,0.00,,,0.00,,2013-05-11 12:51:00,
2013-05-11 08:01:00,48.0,45.0,29.90,WNW,296,5.0,11.0,89,0.00,,,0.00,,2013-05-11 13:01:00,
2013-05-11 08:11:00,48.0,45.0,29.90,WNW,296,5.0,11.0,89,0.00,,,0.00,,2013-05-11 13:11:00,
2013-05-11 08:21:00,49.0,46.0,29.90,WNW,288,5.0,9.0,88,0.00,,,0.00,,2013-05-11 13:21:00,
2013-05-11 08:32:00,49.0,46.0,29.90,West,281,3.0,8.0,88,0.00,,,0.00,,2013-05-11 13:32:00,
2013-05-11 08:42:00,49.0,46.0,29.90,West,260,6.0,9.0,88,0.00,,,0.00,,2013-05-11 13:42:00,
2013-05-11 08:52:00,49.0,46.0,29.90,West,260,6.0,9.0,88,0.00,,,0.00,,2013-05-11 13:52:00,
2013-05-11 09:02:00,49.0,46.0,29.91,West,260,4.0,8.0,88,0.00,,,0.00,,2013-05-11 14:02:00,
2013-05-11 09:11:00,49.0,46.0,29.91,West,260,4.0,8.0,88,0.00,,,0.00,,2013-05-11 14:11:00,
2013-05-11 09:21:00,49.0,45.0,29.91,WNW,284,4.0,8.0,87,0.00,,,0.00,,2013-05-11 14:21:00,
2013-05-11 09:32:00,50.0,46.0,29.92,WSW,257,4.0,12.0,87,0.00,,,0.00,,2013-05-11 14:32:00,
2013-05-11 09:42:00,51.0,47.0,29.91,WSW,251,4.0,12.0,87,0.00,,,0.00,,2013-05-11 14:42:00,
2013-05-11 09:51:00,51.0,47.0,29.91,WSW,251,4.0,12.0,87,0.00,,,0.00,,2013-05-11 14:51:00,
2013-05-11 10:01:00,52.0,48.0,29.91,WSW,246,5.0,11.0,86,0.00,,,0.00,,2013-05-11 15:01:00,
2013-05-11 10:11:00,52.0,48.0,29.91,WSW,246,5.0,11.0,86,0.00,,,0.00,,2013-05-11 15:11:00,
2013-05-11 10:21:00,52.0,48.0,29.91,WSW,246,5.0,11.0,86,0.00,,,0.00,,2013-05-11 15:21:00,
2013-05-11 10:32:00,52.0,48.0,29.90,SW,230,9.0,15.0,85,0.00,,,0.00,,2013-05-11 15:32:00,
2013-05-11 10:43:00,53.0,49.0,29.89,SW,215,7.0,12.0,85,0.00,,,0.00,,2013-05-11 15:43:00,
2013-05-11 10:53:00,53.0,49.0,29.89,SW,215,7.0,12.0,85,0.00,,,0.00,,2013-05-11 15:53:00,
2013-05-11 11:02:00,54.0,49.0,29.89,SSW,200,7.0,11.0,84,0.00,,,0.00,,2013-05-11 16:02:00,
2013-05-11 11:12:00,54.0,49.0,29.89,SSW,200,7.0,11.0,84,0.00,,,0.00,,2013-05-11 16:12:00,
2013-05-11 11:22:00,55.0,50.0,29.89,SW,221,8.0,14.0,82,0.00,,,0.00,,2013-05-11 16:22:00,
2013-05-11 11:33:00,56.0,51.0,29.88,SSW,209,7.0,15.0,83,0.00,,,0.00,,2013-05-11 16:33:00,
2013-05-11 11:42:00,57.0,52.0,29.86,SSW,212,9.0,13.0,82,0.00,,,0.00,,2013-05-11 16:42:00,
2013-05-11 11:52:00,57.0,52.0,29.86,SSW,212,9.0,13.0,82,0.00,,,0.00,,2013-05-11 16:52:00,
2013-05-11 12:02:00,58.0,52.0,29.86,SW,219,11.0,17.0,81,0.00,,,0.00,,2013-05-11 17:02:00,
2013-05-11 12:12:00,58.0,52.0,29.86,SW,219,11.0,17.0,81,0.00,,,0.00,,2013-05-11 17:12:00,
2013-05-11 12:22:00,59.0,53.0,29.86,SW,231,8.0,15.0,80,0.00,,,0.00,,2013-05-11 17:22:00,
2013-05-11 12:32:00,58.0,52.0,29.86,WSW,247,10.0,16.0,80,0.00,,,0.00,,2013-05-11 17:32:00,
2013-05-11 12:42:00,58.0,52.0,29.86,SW,222,12.0,16.0,81,0.00,,,0.00,,2013-05-11 17:42:00,
2013-05-11 12:52:00,58.0,52.0,29.86,SW,222,12.0,16.0,81,0.00,,,0.00,,2013-05-11 17:52:00,
2013-05-11 13:01:00,58.0,52.0,29.86,SW,222,12.0,16.0,81,0.00,,,0.00,,2013-05-11 18:01:00,
2013-05-11 13:11:00,58.0,52.0,29.86,SW,222,12.0,16.0,81,0.00,,,0.00,,2013-05-11 18:11:00,
2013-05-11 13:21:00,59.0,53.0,29.85,SW,236,10.0,16.0,81,0.00,,,0.00,,2013-05-11 18:21:00,
2013-05-11 13:32:00,60.0,53.0,29.85,West,261,12.0,18.0,78,0.00,,,0.00,,2013-05-11 18:32:00,
2013-05-11 13:42:00,62.0,54.0,29.85,West,265,18.0,25.0,74,0.00,,,0.00,,2013-05-11 18:42:00,
2013-05-11 13:51:00,62.0,54.0,29.85,West,265,18.0,25.0,74,0.00,,,0.00,,2013-05-11 18:51:00,
2013-05-11 14:02:00,62.0,53.0,29.85,West,275,14.0,22.0,72,0.00,,,0.00,,2013-05-11 19:02:00,
2013-05-11 14:11:00,62.0,53.0,29.85,West,275,14.0,22.0,72,0.00,,,0.00,,2013-05-11 19:11:00,
2013-05-11 14:21:00,64.0,52.0,29.85,WNW,282,13.0,22.0,64,0.00,,,0.00,,2013-05-11 19:21:00,
2013-05-11 14:32:00,63.0,49.0,29.85,West,281,17.0,24.0,60,0.00,,,0.00,,2013-05-11 19:32:00,
2013-05-11 14:42:00,63.0,49.0,29.85,West,281,17.0,24.0,60,0.00,,,0.00,,2013-05-11 19:42:00,
2013-05-11 14:52:00,64.0,47.0,29.85,West,266,17.0,29.0,55,0.00,,,0.00,,2013-05-11 19:52:00,
2013-05-11 15:02:00,64.0,42.0,29.86,WNW,296,20.0,26.0,44,0.00,,,0.00,,2013-05-11 20:02:00,
2013-05-11 15:12:00,64.0,42.0,29.86,WNW,296,20.0,26.0,44,0.00,,,0.00,,2013-05-11 20:12:00,
2013-05-11 15:22:00,63.0,44.0,29.86,NW,317,21.0,28.0,50,0.00,,,0.00,,2013-05-11 20:22:00,
2013-05-11 15:32:00,62.0,43.0,29.86,WNW,298,20.0,32.0,49,0.00,,,0.00,,2013-05-11 20:32:00,
2013-05-11 15:42:00,62.0,43.0,29.86,WNW,298,20.0,32.0,49,0.00,,,0.00,,2013-05-11 20:42:00,
2013-05-11 15:52:00,62.0,43.0,29.86,WNW,298,20.0,32.0,49,0.00,,,0.00,,2013-05-11 20:52:00,
2013-05-11 16:02:00,62.0,43.0,29.86,WNW,298,20.0,32.0,49,0.00,,,0.00,,2013-05-11 21:02:00,
2013-05-11 16:21:00,62.0,40.0,29.88,NW,309,17.0,29.0,44,0.00,,,0.00,,2013-05-11 21:21:00,
2013-05-11 16:33:00,61.0,33.0,29.88,NW,322,23.0,29.0,35,0.00,,,0.00,,2013-05-11 21:33:00,
2013-05-11 16:43:00,61.0,33.0,29.88,NW,322,23.0,29.0,35,0.00,,,0.00,,2013-05-11 21:43:00,
2013-05-11 16:52:00,61.0,34.0,29.89,NW,304,21.0,29.0,36,0.00,,,0.00,,2013-05-11 21:52:00,
2013-05-11 17:02:00,61.0,35.0,29.89,WNW,290,17.0,29.0,37,0.00,,,0.00,,2013-05-11 22:02:00,
2013-05-11 17:13:00,61.0,35.0,29.89,WNW,290,17.0,29.0,37,0.00,,,0.00,,2013-05-11 22:13:00,
2013-05-11 17:23:00,61.0,35.0,29.90,WNW,300,19.0,28.0,37,0.00,,,0.00,,2013-05-11 22:23:00,
2013-05-11 17:33:00,60.0,34.0,29.91,WNW,302,20.0,30.0,37,0.00,,,0.00,,2013-05-11 22:33:00,
2013-05-11 17:42:00,60.0,34.0,29.91,WNW,302,20.0,30.0,37,0.00,,,0.00,,2013-05-11 22:42:00,
2013-05-11 17:52:00,59.0,32.0,29.92,NW,313,21.0,29.0,36,0.00,,,0.00,,2013-05-11 22:52:00,
2013-05-11 18:02:00,59.0,33.0,29.92,WNW,300,19.0,27.0,37,0.00,,,0.00,,2013-05-11 23:02:00,
2013-05-11 18:12:00,59.0,33.0,29.92,WNW,300,19.0,27.0,37,0.00,,,0.00,,2013-05-11 23:12:00,
2013-05-11 18:22:00,58.0,34.0,29.93,WNW,294,18.0,27.0,40,0.00,,,0.00,,2013-05-11 23:22:00,
2013-05-11 18:32:00,57.0,32.0,29.93,NW,307,22.0,29.0,39,0.00,,,0.00,,2013-05-11 23:32:00,
2013-05-11 18:42:00,57.0,33.0,29.94,NW,306,20.0,26.0,40,0.00,,,0.00,,2013-05-11 23:42:00,
2013-05-11 18:52:00,57.0,33.0,29.94,NW,306,20.0,26.0,40,0.00,,,0.00,,2013-05-11 23:52:00,
2013-05-11 19:01:00,55.0,33.0,29.94,NW,316,18.0,29.0,44,0.00,,,0.00,,2013-05-12 00:01:00,
2013-05-11 19:11:00,55.0,33.0,29.94,NW,316,18.0,29.0,44,0.00,,,0.00,,2013-05-12 00:11:00,
2013-05-11 19:21:00,56.0,33.0,29.95,NW,307,17.0,28.0,41,0.00,,,0.00,,2013-05-12 00:21:00,
2013-05-11 19:32:00,54.0,33.0,29.96,NNW,331,15.0,23.0,45,0.00,,,0.00,,2013-05-12 00:32:00,
2013-05-11 19:42:00,53.0,34.0,29.97,WNW,296,13.0,19.0,48,0.00,,,0.00,,2013-05-12 00:42:00,
2013-05-11 19:52:00,53.0,34.0,29.97,WNW,296,13.0,19.0,48,0.00,,,0.00,,2013-05-12 00:52:00,
2013-05-11 20:01:00,53.0,33.0,29.97,NW,306,14.0,21.0,46,0.00,,,0.00,,2013-05-12 01:01:00,
2013-05-11 20:11:00,53.0,33.0,29.97,NW,306,14.0,21.0,46,0.00,,,0.00,,2013-05-12 01:11:00,
2013-05-11 20:21:00,52.0,32.0,29.97,NW,311,14.0,20.0,47,0.00,,,0.00,,2013-05-12 01:21:00,
2013-05-11 20:32:00,51.0,31.0,29.98,NW,306,12.0,18.0,47,0.00,,,0.00,,2013-05-12 01:32:00,
2013-05-11 20:42:00,50.0,34.0,29.98,WNW,298,7.0,14.0,53,0.00,,,0.00,,2013-05-12 01:42:00,
2013-05-11 20:52:00,50.0,34.0,29.98,WNW,298,7.0,14.0,53,0.00,,,0.00,,2013-05-12 01:52:00,
2013-05-11 21:01:00,50.0,34.0,29.98,NW,312,10.0,15.0,53,0.00,,,0.00,,2013-05-12 02:01:00,
2013-05-11 21:11:00,50.0,34.0,29.98,NW,312,10.0,15.0,53,0.00,,,0.00,,2013-05-12 02:11:00,
2013-05-11 21:22:00,49.0,32.0,29.99,NW,309,10.0,15.0,52,0.00,,,0.00,,2013-05-12 02:22:00,
2013-05-11 21:32:00,48.0,33.0,30.00,WNW,301,8.0,13.0,55,0.00,,,0.00,,2013-05-12 02:32:00,
2013-05-11 21:42:00,48.0,33.0,30.00,WNW,301,8.0,13.0,55,0.00,,,0.00,,2013-05-12 02:42:00,
2013-05-11 21:52:00,48.0,33.0,30.00,WNW,301,8.0,13.0,55,0.00,,,0.00,,2013-05-12 02:52:00,
2013-05-11 22:01:00,47.0,33.0,30.01,NW,308,9.0,12.0,59,0.00,,,0.00,,2013-05-12 03:01:00,
2013-05-11 22:11:00,47.0,33.0,30.02,WNW,299,9.0,18.0,57,0.00,,,0.00,,2013-05-12 03:11:00,
2013-05-11 22:22:00,47.0,33.0,30.02,WNW,299,9.0,18.0,57,0.00,,,0.00,,2013-05-12 03:22:00,
2013-05-11 22:33:00,47.0,33.0,30.02,NW,309,9.0,14.0,57,0.00,,,0.00,,2013-05-12 03:33:00,
2013-05-11 22:43:00,47.0,33.0,30.02,NW,309,9.0,14.0,57,0.00,,,0.00,,2013-05-12 03:43:00,
2013-05-11 22:53:00,46.0,33.0,30.02,NW,305,8.0,11.0,60,0.00,,,0.00,,2013-05-12 03:53:00,
2013-05-11 23:02:00,-999.0,-99.9,30.02,NW,310,9.0,11.0,61,0.00,,,0.00,,2013-05-12 04:02:00,
2013-05-11 23:12:00,45.0,32.0,30.02,NW,310,9.0,11.0,61,0.00,,,0.00,,2013-05-12 04:12:00,
2013-05-11 23:22:00,45.0,33.0,30.02,WNW,301,7.0,11.0,62,0.00,,,0.00,,2013-05-12 04:22:00,
2013-05-11 23:33:00,44.0,33.0,30.02,NW,308,5.0,9.0,65,0.00,,,0.00,,2013-05-12 04:33:00,
2013-05-11 23:43:00,44.0,33.0,30.02,NW,308,5.0,9.0,65,0.00,,,0.00,,2013-05-12 04:43:00,
2013-05-11 23:52:00,43.0,33.0,30.02,NW,304,5.0,7.0,67,0.00,,,0.00,,2013-05-12 04:52:00,